Location: Bothwell
(42.3833°S, 147.0000°E)
Time: 01:13:53
(UTC+11:00)

DIWATA 2B (PO-101) - Pass Details

Date: 29 September 2022
Orbit: 578 x 591 km, 98.0° (Epoch: 28 November)

Event Time Altitude Azimuth Distance (km) Brightness Sun altitude
Rises 02:32:52 0° 159° (SSE) 2,839 ? -34.0°
Reaches altitude 10° 02:35:11 10° 151° (SSE) 1,929 ? -33.7°
Enters shadow 02:36:59 22° 135° (SE) 1,296 ? -33.4°
